Weather in Suromna

Russia / Vladimir Oblast     56°11′29″N   40°29′34″E
temp.,
°C
wind,
m/s
gust,
m/s
humid.,
%
clouds,
%
prec.,
mm/h
press.,
hPa
HPBL,
m
19 september, sun
sun1900:00+2e2382100 0.0 102661
03:00+2ene3786100 0.0 1026178
06:00+1ene3783100 0.0 1026171
09:00+5e5862100 0.0 1026462
12:00+8e5748100 0.0 10251099
15:00+10e6743100 0.0 10241203
18:00+8e5949100 0.0 1024669
21:00+6ene61359100 0.0 1024548
20 september, mon
mon2000:00+6e61357100 0.0 1023570
03:00+5e71460100 0.0 1022634
06:00+5e71567100 0.0 1022691
09:00+5e81573100 0.2 1022877
12:00+4e81583100 0.9 1022919
15:00+4e81592100 2.8 1022954
18:00+5e81593100 3.1 1021999
21:00+5e81594100 3.6 10211029
21 september, tue
tue2100:00+6e71581100 1.0 1020921
03:00+5e71486100 1.8 1019736
06:00+4e71491100 1.4 1018701
09:00+5e71493100 3.3 1018705
12:00+6e61390100 0.0 1017707
15:00+7e61289100 0.4 1017665
18:00+6e61291100 1.6 1017596
21:00+6e51186100 3.1 1017538
22 september, wed
wed2200:00+6e51190100 0.7 1016493
03:00+6e51193100 1.2 1016554
06:00+6e51294100 2.5 1015614
09:00+5e51095100 3.8 1016575
12:00+6e4895100 1.1 1017473
15:00+7e4794100 1.2 1018443
18:00+7e3695100 0.0 1019284
21:00+7ne2497100 0.0 1019158
23 september, thu
thu2300:00+7ene2398100 0.0 1019139
03:00+7ene239896 0.1 1018102
06:00+7ene249854 0.0 101883
09:00+10e348389 0.0 1018412
12:00+12ene347369 0.0 1016590
15:00+15ese346182 0.0 10151174
18:00+11e4884100 0.2 1015313
21:00+9e3797100 0.2 1014177